Seattle, WA

5:30 PM PST on December 13, 2019 (GMT -0800)
Seattle-Tacoma International

Weather History for KSEA - June, 2019

Change the Weather History Date:

Friday, June 7, 2019

  Actual Average Record
Temperature  
Mean Temperature 58 °F 60 °F  
Max Temperature 64 °F 68 °F 90 °F (2003)
Min Temperature 51 °F 51 °F 42 °F (1946)
Degree Days  
Heating Degree Days 7 6  
Month to date heating degree days 28 44  
Since 1 June heating degree days 28 44  
Since 1 July heating degree days 4036 4597  
Cooling Degree Days 0 0  
Month to date cooling degree days 0 0  
Year to date cooling degree days 21 6  
Since 1 June cooling degree days 0 0  
Growing Degree Days 8 (Base 50)    
Moisture  
Dew Point 45 °F    
Average Humidity 70    
Maximum Humidity 89    
Minimum Humidity 51    
Precipitation  
Precipitation 0.10 in 0.06 in 0.94 in (1936)
Month to date precipitation 0.11 0.44  
Year to date precipitation 14.08 17.88  
Sea Level Pressure  
Sea Level Pressure 30.12 in    
Wind  
Wind Speed 12 mph (SSW)    
Max Wind Speed 23 mph    
Max Gust Speed 29 mph    
Visibility 10 miles    
Events Rain    
T = Trace of Precipitation, MM = Missing Value Source: NWS Daily Summary

Daily Weather History Graph

Daily Weather History Graph

Search for Another Location

Airport or City:

Astronomy

Jun. 07, 2019 Rise Set
Actual Time 5:13 AM PDT 9:03 PM PDT
Civil Twilight 4:33 AM PDT 9:43 PM PDT
Nautical Twilight 3:39 AM PDT 10:37 PM PDT
Astronomical Twilight 2:19 AM PDT 11:58 PM PDT
Moon 9:42 AM PDT (6/7) 12:20 AM PDT (6/7)
Length of Visible Light 17h 09m
Length of Day
15h 50m
Waxing Crescent, 23% of the Moon is Illuminated
Jun 7
Waxing Crescent
Jun 9
First Quarter
Jun 17
Full
Jun 25
Last Quarter
Jul 2
New

Hourly Weather History & Observations

Time (PDT) Temp. Dew Point Humidity Pressure Visibility Wind Dir Wind Speed Gust Speed Precip Events Conditions
12:53 AM 52.0 °F 44.1 °F 74% 30.02 in 10.0 mi SSW 15.0 mph - N/A   Mostly Cloudy
1:02 AM 52.0 °F 44.1 °F 74% 30.00 in 10.0 mi South 12.7 mph - N/A   Mostly Cloudy
1:53 AM 52.0 °F 44.1 °F 74% 30.02 in 10.0 mi SSW 10.4 mph - N/A   Overcast
2:53 AM 51.1 °F 44.1 °F 77% 30.02 in 10.0 mi SSW 12.7 mph - N/A   Overcast
3:53 AM 51.1 °F 44.1 °F 77% 30.03 in 10.0 mi SSW 10.4 mph - N/A   Overcast
4:53 AM 51.1 °F 44.1 °F 77% 30.04 in 10.0 mi SSW 11.5 mph - N/A   Overcast
5:53 AM 51.1 °F 44.1 °F 77% 30.05 in 10.0 mi SSW 13.8 mph - N/A   Overcast
6:08 AM 51.1 °F 44.1 °F 77% 30.04 in 10.0 mi SW 12.7 mph - N/A   Overcast
6:53 AM 51.1 °F 43.0 °F 74% 30.07 in 10.0 mi WSW 8.1 mph - N/A   Mostly Cloudy
7:19 AM 51.1 °F 43.0 °F 74% 30.05 in 10.0 mi SSW 10.4 mph - N/A   Mostly Cloudy
7:33 AM 51.1 °F 44.1 °F 77% 30.05 in 10.0 mi SSW 12.7 mph - N/A   Mostly Cloudy
7:53 AM 51.1 °F 44.1 °F 77% 30.08 in 10.0 mi SSW 10.4 mph - N/A   Mostly Cloudy
8:53 AM 54.0 °F 44.1 °F 69% 30.09 in 10.0 mi SW 11.5 mph - N/A   Mostly Cloudy
9:53 AM 57.0 °F 43.0 °F 59% 30.09 in 10.0 mi SSW 10.4 mph - N/A   Mostly Cloudy
10:53 AM 59.0 °F 43.0 °F 55% 30.10 in 10.0 mi SSW 13.8 mph - N/A   Mostly Cloudy
11:53 AM 59.0 °F 43.0 °F 55% 30.09 in 10.0 mi SSW 15.0 mph 23.0 mph N/A   Mostly Cloudy
12:53 PM 60.1 °F 43.0 °F 53% 30.09 in 10.0 mi SW 13.8 mph 25.3 mph N/A   Mostly Cloudy
1:53 PM 59.0 °F 43.0 °F 55% 30.10 in 10.0 mi South 15.0 mph 21.9 mph 0.00 in   Mostly Cloudy
2:53 PM 57.0 °F 45.0 °F 64% 30.11 in 10.0 mi SW 19.6 mph - 0.00 in Rain Light Rain
3:53 PM 57.9 °F 43.0 °F 58% 30.12 in 10.0 mi SSW 20.7 mph 25.3 mph 0.00 in   Mostly Cloudy
4:25 PM 55.4 °F 42.8 °F 63% 30.11 in 10.0 mi SW 17.3 mph 27.6 mph N/A   Overcast
4:53 PM 55.9 °F 43.0 °F 62% 30.14 in 10.0 mi SSW 16.1 mph - N/A   Overcast
5:53 PM 55.0 °F 44.1 °F 67% 30.15 in 9.0 mi SSW 16.1 mph 23.0 mph 0.00 in Rain Light Rain
6:53 PM 51.1 °F 48.0 °F 89% 30.17 in 8.0 mi SW 8.1 mph - 0.08 in Rain Light Rain
7:53 PM 52.0 °F 48.0 °F 86% 30.19 in 10.0 mi SSW 10.4 mph - 0.02 in   Mostly Cloudy
8:07 PM 52.0 °F 48.0 °F 86% 30.17 in 10.0 mi SW 9.2 mph - N/A   Mostly Cloudy
8:53 PM 52.0 °F 48.0 °F 86% 30.20 in 10.0 mi South 5.8 mph - N/A   Mostly Cloudy
9:39 PM 52.0 °F 48.0 °F 86% 30.21 in 10.0 mi SSE 8.1 mph - N/A   Mostly Cloudy
9:53 PM 52.0 °F 48.0 °F 86% 30.23 in 10.0 mi SSE 8.1 mph - N/A   Overcast
10:43 PM 52.0 °F 48.0 °F 86% 30.22 in 10.0 mi South 9.2 mph - N/A   Overcast
10:53 PM 51.1 °F 46.9 °F 86% 30.24 in 10.0 mi South 10.4 mph - N/A   Mostly Cloudy
11:47 PM 51.8 °F 46.4 °F 82% 30.23 in 10.0 mi South 10.4 mph - N/A   Mostly Cloudy
11:53 PM 51.1 °F 46.9 °F 86% 30.26 in 10.0 mi South 8.1 mph - N/A   Mostly Cloudy